Location: Bogis-Bossey
(46.3500°N, 6.1667°E)
Time: 18:41:25
(UTC+00:00)

Terra - Pass Details

Date: 17 August 2022
Orbit: 701 x 703 km, 98.1° (Epoch: 01 October)

Event Time Altitude Azimuth Distance (km) Brightness Sun altitude
Exits shadow 22:17:40 25° 257° (WSW) 1,421 3.4 -27.7°
Maximum altitude 22:18:09 25° 266° (W) 1,407 3.5 -27.7°
Drops below altitude 10° 22:22:05 10° 322° (NW) 2,180 5.2 -28.0°
Sets 22:24:43 0° 336° (NNW) 3,104 6.4 -28.1°
